GW3175 Weather Reports


time (UTC)temp
F
wind
direction
speed
knots
gust
knots
rain 1hr
in
rain 24hr
in
rain mn
in
humidity
%
barometer
mb
20260902051356 54 47 0.9 1.7 0.00 0.00 0.00 99 1019.7
20260902050850 55 326 0.0 0.9 0.00 0.00 0.00 99 1019.6
20260902050349 55 85 0.0 1.7 0.00 0.00 0.00 99 1019.6
20260902045844 54 156 0.0 2.6 0.00 0.00 0.00 99 1019.6
20260902045340 54 119 0.0 1.7 0.00 0.00 0.00 99 1019.4
20260902044837 55 164 0.0 1.7 0.00 0.00 0.00 99 1019.3
20260902044332 55 130 0.9 1.7 0.00 0.00 0.00 99 1019.3
20260902043832 55 128 0.9 1.7 0.00 0.00 0.00 99 1019.5
20260902043327 54 159 0.0 1.7 0.00 0.00 0.00 99 1019.3
20260902042827 54 114 0.0 0.9 0.00 0.00 0.00 99 1019.4
20260902042321 54 59 0.0 1.7 0.00 0.00 0.00 99 1019.3
20260902041817 54 3 0.0 1.7 0.00 0.00 0.00 99 1018.9
20260902041316 55 143 0.0 1.7 0.00 0.00 0.00 99 1019.1
20260902040815 55 92 0.9 1.7 0.00 0.00 0.00 99 1019.0
20260902040311 55 149 0.9 1.7 0.00 0.00 0.00 99 1019.0
20260902035809 55 107 1.7 1.7 0.00 0.00 0.00 99 1018.8
20260902035306 55 118 1.7 2.6 0.00 0.00 0.00 99 1019.2
20260902034804 55 193 0.0 0.9 0.00 0.00 0.00 99 1019.1
20260902034300 55 144 0.0 1.7 0.00 0.00 0.00 99 1019.1
20260902033757 55 130 0.0 1.7 0.00 0.00 0.00 99 1019.1
20260902033253 55 151 0.9 1.7 0.00 0.00 0.00 99 1019.1
20260902032751 55 135 0.9 1.7 0.00 0.00 0.00 99 1019.2
20260902032246 55 139 1.7 1.7 0.00 0.00 0.00 99 1018.9
20260902031745 55 135 0.0 1.7 0.00 0.00 0.00 99 1019.1
20260902031241 55 195 1.7 1.7 0.00 0.00 0.00 99 1019.2
20260902030732 55 211 0.0 1.7 0.00 0.00 0.00 99 1019.0
20260902030232 55 194 0.9 1.7 0.00 0.00 0.00 99 1019.1
20260902025731 55 118 0.0 1.7 0.00 0.00 0.00 99 1018.7
20260902025226 56 132 0.0 2.6 0.00 0.00 0.00 99 1018.9
20260902024721 55 112 0.0 1.7 0.00 0.00 0.00 99 1019.0
20260902024216 56 118 0.9 1.7 0.00 0.00 0.00 99 1018.9
20260902023712 55 117 0.0 2.6 0.00 0.00 0.00 99 1018.9
20260902023207 56 87 0.0 1.7 0.00 0.00 0.00 99 1019.0
20260902022707 56 118 0.9 1.7 0.00 0.00 0.00 99 1019.0
20260902022202 56 131 0.0 1.7 0.00 0.00 0.00 99 1018.9
20260902021657 56 107 0.9 1.7 0.00 0.00 0.00 99 1018.9
20260902021152 56 183 0.0 1.7 0.00 0.00 0.00 99 1018.9
20260902020648 56 112 0.9 1.7 0.00 0.00 0.00 99 1019.0
20260902020144 56 129 0.0 1.7 0.00 0.00 0.00 99 1019.1
20260902015639 56 150 1.7 2.6 0.00 0.00 0.00 99 1019.0
20260902015136 56 148 0.9 2.6 0.00 0.00 0.00 99 1019.0
20260902014631 56 144 1.7 2.6 0.00 0.00 0.00 99 1018.9
20260902014127 56 132 1.7 2.6 0.00 0.00 0.00 99 1018.8
20260902013626 57 138 1.7 2.6 0.00 0.00 0.00 99 1018.8
20260902013122 57 146 0.9 2.6 0.00 0.00 0.00 99 1018.8
20260902012617 57 135 1.7 2.6 0.00 0.00 0.00 99 1018.9
20260902012112 57 139 0.9 2.6 0.00 0.00 0.00 99 1018.9
20260902011607 57 118 0.9 1.7 0.00 0.00 0.00 99 1019.0
20260902011106 57 117 0.9 1.7 0.00 0.00 0.00 99 1018.8
20260902010601 57 86 0.0 1.7 0.00 0.00 0.00 99 1018.8
20260902010057 57 135 0.0 1.7 0.00 0.00 0.00 99 1018.5
20260902005554 57 104 0.0 1.7 0.00 0.00 0.00 99 1018.6
20260902005051 58 117 0.0 1.7 0.00 0.00 0.00 99 1018.6
20260902004550 58 115 0.0 1.7 0.00 0.00 0.00 99 1018.5
20260902004045 58 130 0.0 1.7 0.00 0.00 0.00 99 1018.5
20260902003541 58 103 0.0 0.9 0.00 0.00 0.00 99 1018.3
20260902003036 58 85 0.9 1.7 0.00 0.00 0.00 99 1018.3
20260902002532 58 160 0.0 0.9 0.00 0.00 0.00 99 1018.5
20260902002027 58 225 0.0 0.9 0.00 0.00 0.00 99 1018.5
20260902001521 57 61 0.0 0.9 0.00 0.00 0.00 99 1018.4
20260902001016 58 135 0.0 1.7 0.00 0.00 0.00 99 1018.2
20260902000511 58 50 0.0 1.7 0.00 0.00 0.00 99 1018.4
20260902000006 58 107 0.0 0.9 0.00 0.00 0.00 99 1018.4
20260901235501 58 19 0.0 0.9 0.00 0.00 0.00 99 1018.5
20260901234955 58 37 0.0 1.7 0.00 0.00 0.00 99 1018.3
20260901234449 59 118 0.0 1.7 0.00 0.00 0.00 99 1018.1
20260901233944 59 130 0.9 0.9 0.00 0.00 0.00 99 1018.3
20260901233445 60 230 0.0 1.7 0.00 0.00 0.00 99 1018.5
20260901232941 60 114 0.0 1.7 0.00 0.00 0.00 99 1018.4
20260901232437 60 44 0.0 1.7 0.00 0.00 0.00 99 1018.4
20260901231931 61 60 0.0 1.7 0.00 0.00 0.00 99 1018.5
20260901231427 61 0 0.0 1.7 0.00 0.00 0.00 98 1018.0
20260901230924 61 7 0.0 1.7 0.00 0.00 0.00 98 1018.2
20260901230423 62 43 0.0 2.6 0.00 0.00 0.00 97 1018.2
20260901225918 62 128 0.9 1.7 0.00 0.00 0.00 96 1018.1
20260901225413 62 33 0.0 1.7 0.00 0.00 0.00 96 1018.0
20260901224908 63 89 0.0 2.6 0.00 0.00 0.00 95 1018.3
20260901224404 64 325 0.9 2.6 0.00 0.00 0.00 94 1018.0
20260901223900 64 13 0.9 2.6 0.00 0.00 0.00 93 1018.0
20260901223355 64 28 1.7 5.2 0.00 0.00 0.00 93 1017.9
20260901222850 64 16 1.7 1.7 0.00 0.00 0.00 93 1017.9
20260901222342 64 108 2.6 3.5 0.00 0.00 0.00 93 1018.0
20260901221837 65 129 0.0 4.3 0.00 0.00 0.00 92 1017.9
20260901221332 65 198 2.6 4.3 0.00 0.00 0.00 92 1017.9
20260901220832 65 65 1.7 3.5 0.00 0.00 0.00 91 1017.8
20260901220331 65 116 5.2 5.2 0.00 0.00 0.00 91 1018.0
20260901215830 65 324 1.7 2.6 0.00 0.00 0.00 91 1017.9
20260901215329 66 344 1.7 2.6 0.00 0.00 0.00 90 1018.1
20260901214828 66 42 0.9 4.3 0.00 0.00 0.00 90 1017.9
20260901214327 66 124 0.0 3.5 0.00 0.00 0.00 89 1017.8
20260901213822 67 306 1.7 3.5 0.00 0.00 0.00 89 1017.7
20260901213321 67 132 2.6 6.1 0.00 0.00 0.00 89 1017.6
20260901212816 66 232 2.6 6.1 0.00 0.00 0.00 89 1017.4
20260901212312 67 260 0.9 3.5 0.00 0.00 0.00 88 1017.4
20260901211807 67 338 1.7 3.5 0.00 0.00 0.00 88 1017.3
20260901211303 67 300 1.7 6.1 0.00 0.00 0.00 87 1017.4
20260901210758 67 57 2.6 7.8 0.00 0.00 0.00 87 1017.2
20260901210249 67 214 2.6 4.3 0.00 0.00 0.00 87 1017.2
20260901205745 68 51 0.9 5.2 0.00 0.00 0.00 86 1017.2
20260901205244 68 69 1.7 5.2 0.00 0.00 0.00 85 1017.2
20260901204740 69 95 1.7 7.8 0.00 0.00 0.00 83 1017.0
20260901204236 70 141 1.7 4.3 0.00 0.00 0.00 81 1017.2
20260901203730 70 180 2.6 5.2 0.00 0.00 0.00 82 1017.1
20260901203225 70 103 1.7 3.5 0.00 0.00 0.00 79 1017.1
20260901202724 70 284 2.6 5.2 0.00 0.00 0.00 79 1017.2
20260901202220 71 80 6.1 7.8 0.00 0.00 0.00 78 1017.0
20260901201715 71 147 3.5 5.2 0.00 0.00 0.00 79 1017.2
20260901201215 71 226 1.7 5.2 0.00 0.00 0.00 77 1017.4
20260901200709 71 39 3.5 6.1 0.00 0.00 0.00 77 1017.2
20260901200204 71 211 1.7 7.0 0.00 0.00 0.00 76 1017.3
20260901195702 70 249 4.3 8.7 0.00 0.00 0.00 76 1017.3
20260901195156 71 291 2.6 7.0 0.00 0.00 0.00 77 1017.4
20260901194652 72 36 3.5 5.2 0.00 0.00 0.00 76 1017.3
20260901194146 71 226 5.2 7.0 0.00 0.00 0.00 77 1017.4
20260901193642 71 206 2.6 6.1 0.00 0.00 0.00 77 1017.6
20260901193137 70 155 1.7 7.8 0.00 0.00 0.00 77 1017.4
20260901192631 71 274 0.0 7.0 0.00 0.00 0.00 77 1017.3
20260901192127 72 215 1.7 10.4 0.00 0.00 0.00 75 1017.2
20260901191623 71 59 6.1 9.6 0.00 0.00 0.00 73 1017.3
20260901191119 72 49 0.0 5.2 0.00 0.00 0.00 75 1017.4
20260901190614 72 178 1.7 4.3 0.00 0.00 0.00 75 1017.4
20260901190108 72 236 4.3 6.1 0.00 0.00 0.00 74 1017.3
20260901185606 72 200 3.5 4.3 0.00 0.00 0.00 71 1017.3
20260901185105 73 206 2.6 6.1 0.00 0.00 0.00 71 1017.2
20260901184601 73 345 2.6 7.8 0.00 0.00 0.00 66 1017.4
20260901184055 73 156 3.5 7.0 0.00 0.00 0.00 70 1017.3
20260901183555 73 229 4.3 8.7 0.00 0.00 0.00 72 1017.4
20260901183052 72 239 2.6 9.6 0.00 0.00 0.00 71 1017.4
20260901182548 73 218 1.7 4.3 0.00 0.00 0.00 73 1017.3
20260901182047 73 264 2.6 4.3 0.00 0.00 0.00 70 1017.3
20260901181546 74 282 1.7 5.2 0.00 0.00 0.00 70 1017.4
20260901181041 72 320 2.6 4.3 0.00 0.00 0.00 74 1017.3
20260901180539 73 337 0.0 5.2 0.00 0.00 0.00 72 1017.2
20260901180034 73 282 2.6 6.1 0.00 0.00 0.00 73 1017.1
20260901175528 71 30 0.0 6.1 0.00 0.00 0.00 73 1017.3
20260901175023 72 72 0.9 7.8 0.00 0.00 0.00 72 1017.2
20260901174519 71 156 0.9 7.0 0.00 0.00 0.00 73 1017.2
20260901174017 73 304 0.0 5.2 0.00 0.00 0.00 70 1017.2
20260901173514 73 133 5.2 7.0 0.00 0.00 0.00 67 1017.0
20260901173010 71 78 2.6 6.1 0.00 0.00 0.00 68 1017.1
20260901172506 73 346 1.7 3.5 0.00 0.00 0.00 72 1017.3
20260901172003 72 143 0.0 4.3 0.00 0.00 0.00 74 1017.2
20260901171502 71 329 2.6 5.2 0.00 0.00 0.00 77 1017.1
20260901171001 71 111 1.7 5.2 0.00 0.00 0.00 78 1017.3
20260901170457 71 66 0.0 3.5 0.00 0.00 0.00 80 1017.1
20260901165956 69 132 0.0 7.0 0.00 0.00 0.00 81 1017.2
20260901165451 70 42 2.6 6.1 0.00 0.00 0.00 83 1017.2
20260901164947 69 80 3.5 3.5 0.00 0.00 0.00 83 1017.1
20260901164442 68 227 1.7 5.2 0.00 0.00 0.00 85 1017.0
20260901163937 68 280 1.7 5.2 0.00 0.00 0.00 84 1017.0
20260901163432 69 71 2.6 9.6 0.00 0.00 0.00 82 1017.0
20260901162931 71 79 2.6 5.2 0.00 0.00 0.00 79 1016.9
20260901162426 70 74 3.5 5.2 0.00 0.00 0.00 80 1017.1
20260901161920 68 234 3.5 6.1 0.00 0.00 0.00 83 1017.2
20260901161419 69 244 1.7 6.1 0.00 0.00 0.00 81 1017.1
20260901160914 69 180 0.0 6.1 0.00 0.00 0.00 82 1017.1
20260901160410 70 116 1.7 4.3 0.00 0.00 0.00 81 1017.3
20260901155909 72 49 3.5 4.3 0.00 0.00 0.00 78 1017.1
20260901155404 70 333 2.6 5.2 0.00 0.00 0.00 80 1017.2
20260901154901 71 80 3.5 6.1 0.00 0.00 0.00 79 1017.3
20260901154400 70 124 3.5 5.2 0.00 0.00 0.00 82 1017.4
20260901153855 70 33 1.7 2.6 0.00 0.00 0.00 81 1017.3
20260901153354 69 104 4.3 9.6 0.00 0.00 0.00 82 1017.3
20260901152853 71 272 0.9 3.5 0.00 0.00 0.00 80 1017.2
20260901152348 70 353 1.7 4.3 0.00 0.00 0.00 82 1017.3
20260901151843 69 244 0.9 6.1 0.00 0.00 0.00 82 1017.2
20260901151337 69 247 0.0 2.6 0.00 0.00 0.00 81 1017.2
20260901150837 70 30 0.0 3.5 0.00 0.00 0.00 81 1017.1
20260901150335 70 327 2.6 5.2 0.00 0.00 0.00 80 1016.9
20260901145832 71 168 0.0 2.6 0.00 0.00 0.00 79 1016.8
20260901145327 70 152 2.6 3.5 0.00 0.00 0.00 81 1017.1
20260901144822 68 310 2.6 6.1 0.00 0.00 0.00 82 1017.0
20260901144318 68 281 1.7 4.3 0.00 0.00 0.00 82 1017.0
20260901143814 70 24 0.9 3.5 0.00 0.00 0.00 78 1017.1
20260901143310 70 18 0.9 2.6 0.00 0.00 0.00 79 1017.1
20260901142806 69 264 1.7 4.3 0.00 0.00 0.00 79 1017.1
20260901142306 70 14 1.7 4.3 0.00 0.00 0.00 79 1017.1
20260901141759 69 357 2.6 5.2 0.00 0.00 0.00 81 1017.1
20260901141254 68 277 1.7 4.3 0.00 0.00 0.00 82 1017.0
20260901140753 69 99 1.7 2.6 0.00 0.00 0.00 80 1017.3
20260901140251 68 61 3.5 3.5 0.00 0.00 0.00 79 1017.2
20260901135747 69 40 0.9 3.5 0.00 0.00 0.00 78 1017.2
20260901135241 67 346 1.7 3.5 0.00 0.00 0.00 80 1017.1
20260901134737 66 293 0.9 4.3 0.00 0.00 0.00 81 1017.3
20260901134237 66 22 1.7 5.2 0.00 0.00 0.00 82 1017.3
20260901133736 67 64 1.7 3.5 0.00 0.00 0.00 79 1017.3
20260901133231 66 315 1.7 3.5 0.00 0.00 0.00 81 1017.4
20260901132729 66 316 0.0 4.3 0.00 0.00 0.00 81 1017.2
20260901132225 66 27 2.6 3.5 0.00 0.00 0.00 82 1017.2
20260901131719 64 309 3.5 6.1 0.00 0.00 0.00 82 1017.1
20260901131218 64 321 0.9 4.3 0.00 0.00 0.00 85 1017.2
20260901130714 64 284 0.9 1.7 0.00 0.00 0.00 84 1017.0
20260901130213 64 35 1.7 2.6 0.00 0.00 0.00 85 1017.1
20260901125710 64 345 0.0 1.7 0.00 0.00 0.00 85 1016.9
20260901125206 63 310 0.0 2.6 0.00 0.00 0.00 85 1017.3
20260901124701 63 325 0.9 2.6 0.00 0.00 0.00 85 1017.0
20260901124155 64 19 0.0 1.7 0.00 0.00 0.00 86 1017.1
20260901123650 64 94 0.9 1.7 0.00 0.00 0.00 86 1017.1
20260901123150 63 25 0.9 1.7 0.00 0.00 0.00 89 1017.2
20260901122648 61 80 0.0 1.7 0.00 0.00 0.00 88 1017.1
20260901122143 61 46 0.9 2.6 0.00 0.00 0.00 89 1017.1
20260901121637 60 3 1.7 1.7 0.00 0.00 0.00 89 1016.7
20260901121132 61 69 0.9 1.7 0.00 0.00 0.00 90 1017.1
20260901120627 60 35 0.0 1.7 0.00 0.00 0.00 90 1017.1
20260901120122 60 25 0.0 1.7 0.00 0.00 0.00 91 1016.9
20260901115617 60 89 0.0 1.7 0.00 0.00 0.00 92 1016.9
20260901115113 60 0 1.7 2.6 0.00 0.00 0.00 89 1016.8
20260901114609 61 81 0.0 2.6 0.00 0.00 0.00 93 1016.8
20260901114108 59 96 0.0 1.7 0.00 0.00 0.00 99 1016.8
20260901113607 56 43 0.0 1.7 0.00 0.00 0.00 99 1016.6
20260901113058 55 62 1.7 1.7 0.00 0.00 0.00 99 1016.7
20260901112557 55 72 0.9 1.7 0.00 0.00 0.00 99 1016.7
20260901112051 55 71 0.9 1.7 0.00 0.00 0.00 99 1016.4
20260901111550 55 69 0.9 1.7 0.00 0.00 0.00 99 1016.6
20260901111049 55 164 0.0 1.7 0.00 0.00 0.00 99 1016.5
20260901110545 55 103 0.0 1.7 0.00 0.00 0.00 99 1016.6
20260901110041 55 175 0.0 1.7 0.00 0.00 0.00 99 1016.6
20260901105537 55 112 0.0 1.7 0.00 0.00 0.00 99 1016.4
20260901105036 54 79 0.9 1.7 0.00 0.00 0.00 99 1016.5
20260901104532 54 122 1.7 2.6 0.00 0.00 0.00 99 1016.5
20260901104027 54 116 0.0 1.7 0.00 0.00 0.00 99 1016.4
20260901103522 54 124 0.9 2.6 0.00 0.00 0.00 99 1016.2
20260901103018 54 134 0.0 1.7 0.00 0.00 0.00 99 1016.1
20260901102517 54 166 0.0 1.7 0.00 0.00 0.00 99 1016.4
20260901102012 54 135 0.0 1.7 0.00 0.00 0.00 99 1016.2
20260901101508 54 133 0.0 1.7 0.00 0.00 0.00 99 1016.0
20260901101002 54 114 0.0 1.7 0.00 0.00 0.00 99 1016.2
20260901100502 53 115 0.9 1.7 0.00 0.00 0.00 99 1016.2
20260901100000 53 83 0.0 1.7 0.00 0.00 0.00 99 1015.9
20260901095500 53 129 0.0 1.7 0.00 0.00 0.00 99 1015.9
20260901094957 54 127 0.0 1.7 0.00 0.00 0.00 99 1016.0
20260901094453 54 156 0.0 1.7 0.00 0.00 0.00 99 1016.0
20260901093952 53 142 0.0 1.7 0.00 0.00 0.00 99 1015.9
20260901093447 53 118 0.9 1.7 0.00 0.00 0.00 99 1016.2
20260901092947 53 142 0.0 1.7 0.00 0.00 0.00 99 1016.2
20260901092443 53 127 0.0 2.6 0.00 0.00 0.00 99 1016.1
20260901091939 52 140 1.7 2.6 0.00 0.00 0.00 99 1016.3
20260901091434 52 64 0.9 1.7 0.00 0.00 0.00 99 1016.2
20260901090929 52 6 0.0 1.7 0.00 0.00 0.00 99 1016.1
20260901090428 52 53 0.0 1.7 0.00 0.00 0.00 99 1016.2
20260901085924 52 63 0.0 1.7 0.00 0.00 0.00 99 1016.2
20260901085419 53 29 0.0 0.9 0.00 0.00 0.00 99 1016.1
20260901084916 53 89 0.0 1.7 0.00 0.00 0.00 99 1016.1
20260901084412 53 63 0.0 1.7 0.00 0.00 0.00 99 1016.3
20260901083908 54 2 0.0 0.9 0.00 0.00 0.00 99 1016.0
20260901083408 54 207 0.9 1.7 0.00 0.00 0.00 99 1016.3
20260901082906 54 147 0.0 1.7 0.00 0.00 0.00 99 1016.3
20260901082401 54 69 0.0 1.7 0.00 0.00 0.00 99 1016.1
20260901081856 54 185 0.0 1.7 0.00 0.00 0.00 99 1016.1
20260901081351 54 152 0.0 2.6 0.00 0.00 0.00 99 1016.1
20260901080851 54 189 1.7 2.6 0.00 0.00 0.00 99 1016.3
20260901080345 53 189 1.7 2.6 0.00 0.00 0.00 99 1016.5
20260901075840 53 115 0.9 1.7 0.00 0.00 0.00 99 1016.4
20260901075335 52 122 0.0 0.9 0.00 0.00 0.00 99 1016.4
20260901074830 53 6 0.9 1.7 0.00 0.00 0.00 98 1016.5
20260901074324 54 30 0.9 1.7 0.00 0.00 0.00 98 1016.3
20260901073820 54 203 0.0 0.9 0.00 0.00 0.00 98 1016.3
20260901073315 54 234 0.0 1.7 0.00 0.00 0.00 99 1016.3
20260901072812 54 194 0.0 2.6 0.00 0.00 0.00 99 1016.3
20260901072311 53 137 0.0 1.7 0.00 0.00 0.00 99 1016.3
20260901071807 52 19 0.0 0.9 0.00 0.00 0.00 99 1016.3
20260901071305 53 31 0.9 1.7 0.00 0.00 0.00 99 1016.4
20260901070804 54 102 0.0 1.7 0.00 0.00 0.00 99 1016.5
20260901070259 55 227 0.0 1.7 0.00 0.00 0.00 99 1016.5
20260901065759 54 191 1.7 1.7 0.00 0.00 0.00 99 1016.5
20260901065254 53 173 0.0 1.7 0.00 0.00 0.00 99 1016.4
20260901064750 52 147 0.0 0.9 0.00 0.00 0.00 99 1016.4
20260901064246 52 68 1.7 1.7 0.00 0.00 0.00 99 1016.6
20260901063743 53 44 0.0 1.7 0.00 0.00 0.00 99 1016.6
20260901063239 53 57 0.0 1.7 0.00 0.00 0.00 98 1016.5
20260901062735 53 54 0.0 1.7 0.00 0.00 0.00 98 1016.5
20260901062230 53 11 0.0 1.7 0.00 0.00 0.00 98 1016.6
20260901061726 54 69 0.9 1.7 0.00 0.00 0.00 97 1016.7
20260901061225 54 38 0.0 1.7 0.00 0.00 0.00 97 1016.7
20260901060721 54 159 0.0 1.7 0.00 0.00 0.00 97 1016.5
20260901060216 54 122 0.0 1.7 0.00 0.00 0.00 96 1016.5
20260901055712 54 50 0.0 1.7 0.00 0.00 0.00 95 1016.4
20260901055208 54 124 0.0 1.7 0.00 0.00 0.00 94 1016.3
20260901054705 55 38 0.0 1.7 0.00 0.00 0.00 94 1016.4
20260901054201 55 113 0.0 0.9 0.00 0.00 0.00 93 1016.5
20260901053657 55 138 0.0 1.7 0.00 0.00 0.00 93 1016.4
20260901053152 55 121 0.0 1.7 0.00 0.00 0.00 94 1016.2
20260901052648 55 139 0.9 1.7 0.00 0.00 0.00 94 1016.3
20260901052143 56 193 0.0 2.6 0.00 0.00 0.00 94 1016.3